When you browse on this site, cookies collect data to enhance your experience and personalize the content and advertising you see.
Visit our Privacy Policy to learn more. By continuing to use the site, you agree to this use of cookies and data.
  • In Czech Republic
  • List of Countries
  • For 7 days
  • Water Temperature
  • Weather Map
  • Weather Widgets
  • user-avatar
    Login

    Hourly Weather Jaunjelgava

    Today, 25 May, Monday

    Time Temperature Precipitation Wind Pressure Humidity
    00:00 +7°C° 0 mm 0 mps 759 mmHg 97%
    01:00 +7°C° 0 mm 0 mps 759 mmHg 97%
    02:00 +7°C° 0 mm 0 mps 759 mmHg 98%
    03:00 +7°C° 0 mm 0 mps 759 mmHg 98%
    04:00 +7°C° 0 mm 0 mps 759 mmHg 98%
    05:00 +7°C° 0 mm 0 mps 760 mmHg 98%
    06:00 +8°C° 0 mm 0 mps 760 mmHg 93%
    07:00 +10°C° 0 mm 0 mps 760 mmHg 89%
    08:00 +12°C° 0 mm 0 mps 761 mmHg 86%
    09:00 +14°C° 0.2 mm 1 mps 761 mmHg 79%
    10:00 +15°C° 0.2 mm 1 mps 761 mmHg 72%
    11:00 +16°C° 0.2 mm 2 mps 761 mmHg 65%
    12:00 +16°C° 0.5 mm 2 mps 761 mmHg 67%
    13:00 +16°C° 0.5 mm 3 mps 761 mmHg 68%
    14:00 +16°C° 0.5 mm 3 mps 761 mmHg 70%
    15:00 +16°C° 0.2 mm 3 mps 761 mmHg 69%
    16:00 +16°C° 0.2 mm 3 mps 761 mmHg 68%
    17:00 +16°C° 0.2 mm 3 mps 761 mmHg 67%
    18:00 +14°C° 0.1 mm 3 mps 762 mmHg 74%
    19:00 +14°C° 0.1 mm 2 mps 763 mmHg 81%
    20:00 +13°C° 0.1 mm 2 mps 763 mmHg 88%
    21:00 +10°C° 0 mm 2 mps 764 mmHg 91%
    22:00 +9°C° 0 mm 2 mps 764 mmHg 94%
    23:00 +8°C° 0 mm 2 mps 765 mmHg 96%

    Tomorrow, 26 May, Tuesday

    Time Temperature Precipitation Wind Pressure Humidity
    00:00 +8°C° 0 mm 2 mps 765 mmHg 96%
    01:00 +8°C° 0 mm 2 mps 765 mmHg 96%
    02:00 +7°C° 0 mm 2 mps 766 mmHg 96%
    03:00 +7°C° 0 mm 2 mps 766 mmHg 94%
    04:00 +7°C° 0 mm 2 mps 766 mmHg 93%
    05:00 +7°C° 0 mm 2 mps 766 mmHg 91%
    06:00 +9°C° 0 mm 2 mps 767 mmHg 83%
    07:00 +12°C° 0 mm 2 mps 767 mmHg 74%
    08:00 +14°C° 0 mm 2 mps 767 mmHg 66%
    09:00 +16°C° 0 mm 2 mps 767 mmHg 58%
    10:00 +17°C° 0 mm 2 mps 767 mmHg 50%
    11:00 +19°C° 0 mm 3 mps 768 mmHg 42%
    12:00 +20°C° 0 mm 3 mps 767 mmHg 41%
    13:00 +20°C° 0 mm 3 mps 767 mmHg 39%
    14:00 +21°C° 0 mm 3 mps 767 mmHg 37%
    15:00 +20°C° 0 mm 3 mps 767 mmHg 40%
    16:00 +20°C° 0 mm 3 mps 767 mmHg 42%
    17:00 +20°C° 0 mm 3 mps 767 mmHg 45%
    18:00 +18°C° 0 mm 3 mps 767 mmHg 53%
    19:00 +16°C° 0 mm 3 mps 767 mmHg 61%
    20:00 +14°C° 0 mm 2 mps 767 mmHg 69%
    21:00 +13°C° 0 mm 2 mps 767 mmHg 72%
    22:00 +12°C° 0 mm 2 mps 767 mmHg 75%
    23:00 +9°C° 0 mm 2 mps 767 mmHg 79%

    Day after tomorrow, 27 May, Wednesday

    Time Temperature Precipitation Wind Pressure Humidity
    00:00 +9°C° 0 mm 2 mps 767 mmHg 79%
    01:00 +9°C° 0 mm 2 mps 767 mmHg 79%
    02:00 +10°C° 0 mm 1 mps 766 mmHg 78%
    03:00 +9°C° 0 mm 1 mps 766 mmHg 79%
    04:00 +9°C° 0 mm 1 mps 766 mmHg 79%
    05:00 +9°C° 0 mm 1 mps 766 mmHg 79%
    06:00 +12°C° 0 mm 1 mps 766 mmHg 71%
    07:00 +14°C° 0 mm 1 mps 766 mmHg 64%
    08:00 +16°C° 0 mm 1 mps 765 mmHg 56%
    09:00 +19°C° 0 mm 1 mps 765 mmHg 51%
    10:00 +21°C° 0 mm 1 mps 764 mmHg 46%
    11:00 +22°C° 0 mm 1 mps 764 mmHg 41%
    12:00 +21°C° 0 mm 1 mps 764 mmHg 43%
    13:00 +21°C° 0 mm 1 mps 763 mmHg 45%
    14:00 +20°C° 0 mm 1 mps 763 mmHg 47%
    15:00 +20°C° 0 mm 1 mps 762 mmHg 49%
    16:00 +20°C° 0 mm 1 mps 762 mmHg 50%
    17:00 +20°C° 0 mm 1 mps 762 mmHg 52%
    18:00 +18°C° 0 mm 1 mps 762 mmHg 58%
    19:00 +16°C° 0 mm 1 mps 761 mmHg 64%
    20:00 +15°C° 0 mm 1 mps 761 mmHg 70%
    21:00 +14°C° 0 mm 1 mps 761 mmHg 75%
    22:00 +12°C° 0 mm 1 mps 761 mmHg 79%
    23:00 +11°C° 0 mm 1 mps 761 mmHg 83%

    28 May, Thursday

    Time Temperature Precipitation Wind Pressure Humidity
    00:00 +11°C° 0 mm 1 mps 760 mmHg 84%
    01:00 +10°C° 0 mm 1 mps 760 mmHg 85%
    02:00 +10°C° 0 mm 1 mps 760 mmHg 85%
    03:00 +10°C° 0 mm 1 mps 759 mmHg 86%
    04:00 +10°C° 0 mm 1 mps 759 mmHg 86%
    05:00 +10°C° 0 mm 1 mps 759 mmHg 86%
    06:00 +11°C° 0 mm 1 mps 759 mmHg 81%
    07:00 +13°C° 0 mm 1 mps 759 mmHg 75%
    08:00 +14°C° 0 mm 1 mps 759 mmHg 70%
    09:00 +15°C° 0.1 mm 1 mps 759 mmHg 69%
    10:00 +16°C° 0.1 mm 2 mps 758 mmHg 68%
    11:00 +16°C° 0.1 mm 2 mps 758 mmHg 66%
    12:00 +16°C° 0.6 mm 2 mps 758 mmHg 72%
    13:00 +16°C° 0.6 mm 3 mps 758 mmHg 78%
    14:00 +14°C° 0.6 mm 3 mps 758 mmHg 84%
    15:00 +14°C° 0.2 mm 3 mps 758 mmHg 81%
    16:00 +14°C° 0.2 mm 3 mps 757 mmHg 78%
    17:00 +14°C° 0.2 mm 3 mps 757 mmHg 75%
    18:00 +13°C° 0.1 mm 3 mps 758 mmHg 78%
    19:00 +12°C° 0.1 mm 3 mps 758 mmHg 81%
    20:00 +11°C° 0.1 mm 3 mps 758 mmHg 84%
    21:00 +11°C° 0 mm 3 mps 758 mmHg 87%
    22:00 +10°C° 0 mm 2 mps 758 mmHg 90%
    23:00 +10°C° 0 mm 2 mps 758 mmHg 92%

    29 May, Friday

    Time Temperature Precipitation Wind Pressure Humidity
    00:00 +10°C° 0 mm 2 mps 758 mmHg 93%
    01:00 +10°C° 0 mm 2 mps 757 mmHg 94%
    02:00 +10°C° 0 mm 2 mps 757 mmHg 94%
    03:00 +10°C° 0.2 mm 2 mps 757 mmHg 95%
    04:00 +10°C° 0.2 mm 2 mps 757 mmHg 95%
    05:00 +10°C° 0.2 mm 3 mps 757 mmHg 96%
    06:00 +11°C° 0 mm 3 mps 757 mmHg 93%
    07:00 +11°C° 0 mm 3 mps 757 mmHg 91%
    08:00 +12°C° 0 mm 3 mps 756 mmHg 88%
    09:00 +14°C° 0.2 mm 3 mps 756 mmHg 80%
    10:00 +17°C° 0.2 mm 4 mps 756 mmHg 71%
    11:00 +19°C° 0.2 mm 4 mps 756 mmHg 62%
    12:00 +19°C° 0.5 mm 4 mps 756 mmHg 61%
    13:00 +20°C° 0.5 mm 4 mps 755 mmHg 59%
    14:00 +20°C° 0.5 mm 4 mps 755 mmHg 58%
    15:00 +20°C° 0.4 mm 4 mps 755 mmHg 63%
    16:00 +19°C° 0.4 mm 3 mps 755 mmHg 67%
    17:00 +19°C° 0.4 mm 3 mps 755 mmHg 71%
    18:00 +17°C° 0.4 mm 3 mps 755 mmHg 79%
    19:00 +16°C° 0.4 mm 2 mps 755 mmHg 86%
    20:00 +14°C° 0.4 mm 2 mps 756 mmHg 94%
    21:00 +14°C° 0.1 mm 2 mps 756 mmHg 95%
    22:00 +13°C° 0.1 mm 2 mps 756 mmHg 96%
    23:00 +13°C° 0.1 mm 2 mps 756 mmHg 97%

    30 May, Saturday

    Time Temperature Precipitation Wind Pressure Humidity
    00:00 +13°C° 0 mm 2 mps 756 mmHg 97%
    01:00 +13°C° 0 mm 1 mps 756 mmHg 97%
    02:00 +12°C° 0 mm 1 mps 757 mmHg 97%
    03:00 +12°C° 0 mm 1 mps 757 mmHg 97%
    04:00 +12°C° 0 mm 1 mps 757 mmHg 96%
    05:00 +12°C° 0 mm 1 mps 757 mmHg 96%
    06:00 +13°C° 0 mm 1 mps 757 mmHg 93%
    07:00 +14°C° 0 mm 1 mps 757 mmHg 90%
    08:00 +15°C° 0 mm 1 mps 757 mmHg 88%
    09:00 +16°C° 0.3 mm 2 mps 757 mmHg 82%
    10:00 +18°C° 0.3 mm 2 mps 757 mmHg 76%
    11:00 +19°C° 0.3 mm 2 mps 757 mmHg 70%
    12:00 +19°C° 0.6 mm 2 mps 757 mmHg 70%
    13:00 +19°C° 0.6 mm 2 mps 756 mmHg 70%
    14:00 +20°C° 0.6 mm 2 mps 756 mmHg 71%
    15:00 +19°C° 0.8 mm 2 mps 756 mmHg 76%
    16:00 +18°C° 0.8 mm 2 mps 756 mmHg 82%
    17:00 +17°C° 0.8 mm 2 mps 756 mmHg 88%
    18:00 +17°C° 0.2 mm 2 mps 756 mmHg 90%
    19:00 +16°C° 0.2 mm 2 mps 756 mmHg 92%
    20:00 +15°C° 0.2 mm 1 mps 756 mmHg 94%
    21:00 +14°C° 0 mm 2 mps 756 mmHg 95%
    22:00 +13°C° 0 mm 2 mps 757 mmHg 97%
    23:00 +12°C° 0 mm 2 mps 757 mmHg 98%
    Show more